Starlink 4208

operational
NORAD ID: 52844 Int'l Des: 2022-062 Owner: SPXS Country: US Constellation: starlink
LEOCIRCULAR

关于 Starlink 4208

正在加载描述...

实时位置

正在加载3D地球...

即将过境

高度历史

Altitude vs Time

uPlot chart will show altitude changes over time

两行轨道根数

1 52844U 22062Q 25303.57364843 -.00000854 00000-0 -35556-4 0 9995
2 52844 53.2171 258.2353 0001521 93.7521 266.3645 15.08835789186144
Epoch: Oct 30, 2025 • Age: 20 hours

当前状态

高度 539.5 km
速度 7.60 km/s
星下点 15.25°N, 120.42°W
发射日期 Jun 17, 2022
运行时间 3.3 years
类型 internet

技术详情

分类 Payload
质量 297.00 kg
干质量 275.00 kg
总质量 297.00 kg
长度 0.20 m
直径 2.80 m
跨度 9.00 m
形状 Box + pan
制造商 SPXS
平台类型 Starlink
阶段状态 In Orbit
所有者/国家 SPXS/US

大型星座

Loading constellations...